Location: Newark
(48.2308°N, 120.8549°W)
Time: 14:34:24
(UTC+00:00)

Transit 2A Rocket - Pass Details

Date: 27 May 2020
Orbit: 584 x 919 km, 66.7° (Epoch: 07 July)

Event Time Altitude Azimuth Distance (km) Brightness Sun altitude
Rises 06:35:53 0° 183° (S) 3,028 - -17.8°
Reaches altitude 10° 06:38:18 10° 173° (S) 2,170 - -18.0°
Exits shadow 06:41:45 30° 132° (SE) 1,314 5.7 -18.2°
Maximum altitude 06:42:40 32° 111° (ESE) 1,275 5.8 -18.2°
Drops below altitude 10° 06:47:27 10° 50° (NE) 2,385 7.8 -18.5°
Sets 06:50:12 0° 41° (NE) 3,377 8.8 -18.6°
